This is the latest recevied weather packets stored in our database for station/object KJ7BRE-1. If no packets are shown the sender has not sent any weather packets the latest 10 day(s).
| Time | Temp. | Humidity | Pressure | Rain* | Wind** | Luminosity | Snow |
|---|---|---|---|---|---|---|---|
| 1778254845 | 12.22° C | 68% | 1014.6 hPa | 0 mm | - | - | - |
| 1778254544 | 11.67° C | 70% | 1014.6 hPa | 0 mm | - | - | - |
| 1778254243 | 11.67° C | 71% | 1014.6 hPa | 0 mm | - | - | - |
| 1778253941 | 11.67° C | 70% | 1014.9 hPa | 0 mm | - | - | - |
| 1778253640 | 11.11° C | 70% | 1014.9 hPa | 0 mm | - | - | - |
| 1778253339 | 11.67° C | 70% | 1014.9 hPa | 0 mm | - | - | - |
| 1778253038 | 11.11° C | 71% | 1014.9 hPa | 0 mm | - | - | - |
| 1778252737 | 11.11° C | 71% | 1014.9 hPa | 0 mm | - | - | - |
| 1778252435 | 11.11° C | 72% | 1014.9 hPa | 0 mm | - | - | - |
| 1778252134 | 11.11° C | 71% | 1014.9 hPa | 0 mm | - | - | - |
| 1778251833 | 11.67° C | 70% | 1015.2 hPa | 0 mm | - | - | - |
| 1778251531 | 11.67° C | 70% | 1015.2 hPa | 0 mm | - | - | - |
| 1778251230 | 11.67° C | 71% | 1015.2 hPa | 0 mm | - | - | - |
| 1778250929 | 11.11° C | 73% | 1014.9 hPa | 0 mm | - | - | - |
| 1778250628 | 10.56° C | 73% | 1015.2 hPa | 0 mm | - | - | - |
| 1778250326 | 10.56° C | 73% | 1015.2 hPa | 0 mm | - | - | - |
| 1778250025 | 11.11° C | 73% | 1014.9 hPa | 0 mm | - | - | - |
| 1778249724 | 10.56° C | 74% | 1014.9 hPa | 0 mm | - | - | - |
| 1778249423 | 10.56° C | 73% | 1014.9 hPa | 0 mm | - | - | - |
| 1778249122 | 10.56° C | 74% | 1014.6 hPa | 0 mm | - | - | - |
| 1778248820 | 10.56° C | 74% | 1014.6 hPa | 0 mm | - | - | - |
| 1778248519 | 10° C | 75% | 1014.6 hPa | 0 mm | - | - | - |
| 1778248218 | 10° C | 76% | 1014.2 hPa | 0 mm | - | - | - |
| 1778247917 | 10° C | 76% | 1014.2 hPa | 0 mm | - | - | - |
| 1778247615 | 9.44° C | 75% | 1013.9 hPa | 0 mm | - | - | - |
* Rain latest hour (hover to see other rain measurements)
** Current wind speed in m/s (hover to see current wind gust speed)